STARLINK-1156 (45054 NORAD) Tracking and Keplerian Element Data

This shows tracking and keplerian element data for the satellite.

Feedback or suggestion? Click here.




ElementValue
Catalog45054
NameSTARLINK-1156
Epoch Orbit401
Epoch Day52.91667824
Epoch Year2020
RAAN121.1256
Inclination52.9966
Eccentricity0.000134
Argument of Perigee67.5003
Mean Anonmoly329.7144
Mean Motion15.4812663
Decay Rate-0.00094882
L11 45054U 20006L 20052.91667824 -.00094882 00000-0 -17913-2 0 9994
L22 45054 52.9966 121.1256 0001340 67.5003 329.7144 15.48126630 4015

Live tracking and technical data element details for STARLINK-1156 (NORAD 45054). STARLINK-1156 can be tracked NOW for your location showing map with azimuth and elevation plus other details from your city location.

Track the satellite on the map from your city or location and see movement details for azimuth, elevation, latitude, longitude, range, height, and movement on the map or in text.







IsCatalogInMostPopularTable: catalog: 45054, numindb: 6
Update: records affected: 1



GetName: 45054 STARLINK-1156

Hit Count: updated at: Mon, 24 Feb 2020 17:51:51 GMT